Location: Erlenbrunn
(49.1717°N, 7.6142°E)
Time: 04:57:39
(UTC+00:00)

Cosmos 2218 Rocket - Pass Details

Date: 25 November 2020
Orbit: 956 x 1005 km, 82.9° (Epoch: 24 January)

Event Time Altitude Azimuth Distance (km) Brightness Sun altitude
Rises 17:16:15 0° 352° (N) 3,657 6.9 -15.6°
Reaches altitude 10° 17:18:48 10° 356° (N) 2,703 6.2 -16.0°
Maximum altitude 17:24:56 64° 77° (ENE) 1,056 3.9 -17.0°
Drops below altitude 10° 17:31:01 10° 159° (SSE) 2,684 6.2 -18.0°
Sets 17:33:32 0° 163° (SSE) 3,628 6.9 -18.4°
